KB9VKQ-13 Weather Reports


time (UTC)temp
C
wind
direction
speed
KPH
gust
KPH
rain 1hr
cm
rain 24hr
cm
rain mn
cm
humidity
%
barometer
mb
20260504081107 14 307 17.7 22.5 0.05 0.18 0.23
20260504050707 13 191 4.8 9.7 0.00 0.18 0.00
20260504045707 13 214 4.8 9.7 0.00 0.00 0.18
20260504044637 13 211 4.8 8.0 0.00 0.00 0.18
20260504043637 13 225 1.6 8.0 0.00 0.00 0.18
20260504042607 12 150 1.6 6.4 0.00 0.00 0.18
20260504041537 12 68 3.2 9.7 0.00 0.00 0.18
20260504040537 13 65 3.2 8.0 0.00 0.00 0.18
20260504035537 13 179 3.2 12.9 0.00 0.00 0.18
20260504034507 13 111 9.7 12.9 0.00 0.00 0.18
20260504033437 14 91 9.7 16.1 0.00 0.00 0.18
20260504032437 15 84 8.0 20.9 0.00 0.00 0.18
20260504031437 15 66 12.9 25.7 0.00 0.00 0.18
20260504030407 15 23 9.7 14.5 0.00 0.00 0.18
20260504025407 15 191 1.6 11.3 0.13 0.00 0.18
20260504024337 15 211 4.8 9.7 0.18 0.00 0.18
20260504023307 15 177 4.8 12.9 0.18 0.00 0.18
20260504022307 15 229 8.0 11.3 0.18 0.00 0.18
20260504021307 15 217 6.4 12.9 0.18 0.00 0.18
20260504020307 15 222 6.4 20.9 0.18 0.00 0.18
20260504015307 17 240 9.7 14.5 0.05 0.00 0.05
20260504014307 17 259 3.2 17.7 0.00 0.00 0.00
20260504013237 17 240 9.7 20.9 0.00 0.00 0.00
20260504012237 17 239 11.3 20.9 0.00 0.00 0.00
20260504011237 17 255 14.5 19.3 0.00 0.00 0.00
20260504010237 17 236 9.7 17.7 0.00 0.00 0.00
20260504005237 17 210 9.7 16.1 0.00 0.00 0.00
20260504004207 18 195 11.3 19.3 0.00 0.00 0.00
20260504003207 18 249 8.0 17.7 0.00 0.00 0.00
20260504002137 19 224 11.3 20.9 0.00 0.00 0.00
20260504001137 20 257 9.7 25.7 0.00 0.00 0.00
20260504000107 21 226 11.3 25.7 0.00 0.00 0.00
20260503235037 22 201 16.1 24.1 0.00 0.00 0.00
20260503234007 22 229 16.1 27.4 0.00 0.00 0.00
20260503232937 22 240 12.9 22.5 0.00 0.00 0.00
20260503231907 23 246 11.3 22.5 0.00 0.00 0.00
20260503230907 23 212 11.3 25.7 0.00 0.00 0.00
20260503225907 22 250 16.1 25.7 0.00 0.00 0.00
20260503224837 23 250 12.9 27.4 0.00 0.00 0.00
20260503223807 22 235 11.3 33.8 0.00 0.00 0.00
20260503222737 22 232 16.1 35.4 0.00 0.00 0.00
20260503221737 22 250 19.3 40.2 0.00 0.00 0.00
20260503220707 22 219 19.3 38.6 0.00 0.00 0.00
20260503215706 22 211 22.5 35.4 0.00 0.00 0.00
20260503214636 22 252 19.3 33.8 0.00 0.00 0.00
20260503213636 22 225 16.1 37.0 0.00 0.00 0.00
20260503212606 20 246 17.7 41.8 0.00 0.00 0.00
20260503211606 21 232 17.7 40.2 0.00 0.00 0.00
20260503210536 22 242 17.7 43.5 0.00 0.00 0.00
20260503205506 21 222 25.7 40.2 0.00 0.00 0.00
20260503204506 22 208 20.9 45.1 0.00 0.00 0.00
20260503203436 22 233 12.9 32.2 0.00 0.00 0.00
20260503202436 21 186 29.0 45.1 0.00 0.00 0.00
20260503201406 21 226 20.9 40.2 0.00 0.00 0.00
20260503200336 21 218 20.9 40.2 0.00 0.00 0.00
20260503195336 21 238 20.9 41.8 0.00 0.00 0.00
20260503194306 20 271 17.7 32.2 0.00 0.00 0.00
20260503193306 21 235 14.5 40.2 0.00 0.00 0.00
20260503192306 21 218 16.1 35.4 0.00 0.00 0.00
20260503191236 21 246 16.1 35.4 0.00 0.00 0.00
20260503190236 20 232 17.7 37.0 0.00 0.00 0.00
20260503185236 20 249 17.7 37.0 0.00 0.00 0.00
20260503184206 20 224 14.5 38.6 0.00 0.00 0.00
20260503183136 20 253 17.7 35.4 0.00 0.00 0.00
20260503182136 20 231 17.7 33.8 0.00 0.00 0.00
20260503181136 19 222 20.9 35.4 0.00 0.00 0.00
20260503180106 19 236 20.9 45.1 0.00 0.00 0.00
20260503175106 19 228 17.7 45.1 0.00 0.00 0.00
20260503174036 18 231 19.3 38.6 0.00 0.00 0.00
20260503173036 18 233 17.7 35.4 0.00 0.00 0.00
20260503172036 18 235 16.1 35.4 0.00 0.00 0.00
20260503171036 18 264 22.5 41.8 0.00 0.00 0.00
20260503150606 14 233 14.5 35.4 0.00 0.00 0.00
20260503131306 10 228 16.1 24.1 0.00 0.00 0.00
20260503130236 10 242 12.9 22.5 0.00 0.00 0.00
20260503120106 7 211 14.5 22.5 0.00 0.00 0.00